Hourly Weather Nashavar

Today, 10 August, Monday

Time Temperature Precipitation Wind Pressure Humidity
00:00 +37°C° 0.1 mm 3 mps 721 mmHg 52%
01:00 +36°C° 0.1 mm 3 mps 721 mmHg 55%
02:00 +35°C° 0.1 mm 3 mps 721 mmHg 59%
03:00 +35°C° 0.1 mm 2 mps 721 mmHg 61%
04:00 +34°C° 0.1 mm 2 mps 720 mmHg 64%
05:00 +32°C° 0 mm 1 mps 720 mmHg 68%
06:00 +32°C° 0.3 mm 2 mps 721 mmHg 67%
07:00 +34°C° 0.3 mm 2 mps 721 mmHg 66%
08:00 +34°C° 0.3 mm 2 mps 722 mmHg 64%
09:00 +34°C° 0.3 mm 2 mps 721 mmHg 63%
10:00 +34°C° 0.3 mm 1 mps 721 mmHg 62%
11:00 +35°C° 0 mm 1 mps 722 mmHg 56%
12:00 +37°C° 0 mm 1 mps 722 mmHg 51%
13:00 +39°C° 0 mm 2 mps 721 mmHg 45%
14:00 +41°C° 0 mm 2 mps 721 mmHg 39%
15:00 +42°C° 0 mm 3 mps 721 mmHg 38%
16:00 +42°C° 0 mm 3 mps 720 mmHg 37%
17:00 +43°C° 0 mm 4 mps 720 mmHg 36%
18:00 +42°C° 0 mm 4 mps 720 mmHg 40%
19:00 +39°C° 0 mm 3 mps 721 mmHg 45%
20:00 +38°C° 0 mm 3 mps 721 mmHg 49%
21:00 +37°C° 0.7 mm 3 mps 721 mmHg 54%
22:00 +35°C° 0.7 mm 3 mps 721 mmHg 59%
23:00 +34°C° 0.7 mm 3 mps 721 mmHg 64%

Tomorrow, 11 August, Tuesday

Time Temperature Precipitation Wind Pressure Humidity
00:00 +32°C° 1.7 mm 2 mps 721 mmHg 68%
01:00 +31°C° 1.7 mm 2 mps 721 mmHg 72%
02:00 +31°C° 1.7 mm 1 mps 721 mmHg 75%
03:00 +30°C° 0.5 mm 1 mps 721 mmHg 76%
04:00 +30°C° 0.5 mm 1 mps 721 mmHg 77%
05:00 +30°C° 0.5 mm 1 mps 721 mmHg 78%
06:00 +30°C° 0.3 mm 1 mps 721 mmHg 76%
07:00 +31°C° 0.3 mm 1 mps 722 mmHg 75%
08:00 +31°C° 0.3 mm 1 mps 722 mmHg 73%
09:00 +32°C° 0.1 mm 1 mps 722 mmHg 69%
10:00 +33°C° 0.1 mm 1 mps 722 mmHg 64%
11:00 +35°C° 0.1 mm 2 mps 721 mmHg 60%
12:00 +36°C° 0.1 mm 2 mps 721 mmHg 56%
13:00 +37°C° 0.1 mm 2 mps 721 mmHg 52%
14:00 +38°C° 0.1 mm 2 mps 720 mmHg 49%
15:00 +39°C° 0 mm 2 mps 720 mmHg 47%
16:00 +39°C° 0 mm 2 mps 720 mmHg 46%
17:00 +40°C° 0 mm 3 mps 719 mmHg 44%
18:00 +39°C° 0 mm 3 mps 719 mmHg 47%
19:00 +38°C° 0 mm 3 mps 720 mmHg 51%
20:00 +37°C° 0 mm 3 mps 720 mmHg 54%
21:00 +37°C° 0.2 mm 2 mps 720 mmHg 56%
22:00 +35°C° 0.2 mm 1 mps 720 mmHg 58%
23:00 +35°C° 0.2 mm 1 mps 720 mmHg 60%

Day after tomorrow, 12 August, Wednesday

Time Temperature Precipitation Wind Pressure Humidity
00:00 +34°C° 0.1 mm 1 mps 720 mmHg 61%
01:00 +34°C° 0.1 mm 1 mps 720 mmHg 63%
02:00 +34°C° 0.1 mm 1 mps 720 mmHg 64%
03:00 +33°C° 0.1 mm 1 mps 720 mmHg 66%
04:00 +33°C° 0.1 mm 1 mps 720 mmHg 68%
05:00 +32°C° 0.1 mm 2 mps 719 mmHg 70%
06:00 +34°C° 0 mm 2 mps 720 mmHg 69%
07:00 +34°C° 0 mm 2 mps 720 mmHg 68%
08:00 +34°C° 0 mm 2 mps 720 mmHg 67%
09:00 +36°C° 0.1 mm 2 mps 720 mmHg 62%
10:00 +36°C° 0.1 mm 1 mps 720 mmHg 58%
11:00 +37°C° 0.1 mm 1 mps 720 mmHg 53%
12:00 +39°C° 0 mm 1 mps 720 mmHg 49%
13:00 +40°C° 0 mm 2 mps 720 mmHg 44%
14:00 +41°C° 0 mm 2 mps 719 mmHg 40%
15:00 +42°C° 0 mm 2 mps 719 mmHg 39%
16:00 +43°C° 0 mm 3 mps 719 mmHg 39%
17:00 +43°C° 0 mm 3 mps 718 mmHg 38%
18:00 +42°C° 0 mm 3 mps 718 mmHg 42%
19:00 +40°C° 0 mm 3 mps 719 mmHg 46%
20:00 +39°C° 0 mm 3 mps 719 mmHg 49%
21:00 +38°C° 0 mm 2 mps 719 mmHg 51%
22:00 +38°C° 0 mm 2 mps 719 mmHg 52%
23:00 +36°C° 0 mm 1 mps 720 mmHg 54%

13 August, Thursday

Time Temperature Precipitation Wind Pressure Humidity
00:00 +36°C° 0.2 mm 1 mps 720 mmHg 56%
01:00 +36°C° 0.2 mm 2 mps 719 mmHg 58%
02:00 +35°C° 0.2 mm 2 mps 719 mmHg 61%
03:00 +34°C° 0.3 mm 1 mps 719 mmHg 63%
04:00 +33°C° 0.3 mm 1 mps 719 mmHg 66%
05:00 +33°C° 0.3 mm 1 mps 718 mmHg 69%
06:00 +33°C° 0 mm 1 mps 718 mmHg 66%
07:00 +34°C° 0 mm 1 mps 719 mmHg 64%
08:00 +34°C° 0 mm 1 mps 719 mmHg 61%
09:00 +36°C° 0 mm 1 mps 719 mmHg 56%
10:00 +37°C° 0 mm 1 mps 719 mmHg 50%
11:00 +40°C° 0 mm 1 mps 719 mmHg 45%
12:00 +41°C° 0 mm 2 mps 719 mmHg 39%
13:00 +42°C° 0 mm 2 mps 718 mmHg 33%
14:00 +43°C° 0 mm 2 mps 718 mmHg 27%
15:00 +44°C° 0 mm 3 mps 718 mmHg 29%
16:00 +44°C° 0 mm 3 mps 717 mmHg 30%
17:00 +44°C° 0 mm 4 mps 717 mmHg 31%
18:00 +43°C° 0 mm 4 mps 717 mmHg 37%
19:00 +42°C° 0 mm 3 mps 718 mmHg 42%
20:00 +39°C° 0 mm 3 mps 718 mmHg 48%
21:00 +39°C° 0 mm 3 mps 719 mmHg 50%
22:00 +38°C° 0 mm 3 mps 719 mmHg 53%
23:00 +38°C° 0 mm 2 mps 720 mmHg 55%

14 August, Friday

Time Temperature Precipitation Wind Pressure Humidity
00:00 +37°C° 0.7 mm 2 mps 720 mmHg 59%
01:00 +36°C° 0.7 mm 2 mps 720 mmHg 63%
02:00 +35°C° 0.7 mm 2 mps 720 mmHg 67%
03:00 +34°C° 0.8 mm 2 mps 720 mmHg 70%
04:00 +32°C° 0.8 mm 2 mps 720 mmHg 74%
05:00 +32°C° 0.8 mm 1 mps 720 mmHg 77%
06:00 +32°C° 0 mm 2 mps 720 mmHg 75%
07:00 +32°C° 0 mm 2 mps 720 mmHg 74%
08:00 +34°C° 0 mm 2 mps 720 mmHg 73%
09:00 +35°C° 0.1 mm 2 mps 720 mmHg 67%
10:00 +36°C° 0.1 mm 2 mps 720 mmHg 61%
11:00 +36°C° 0.1 mm 1 mps 720 mmHg 56%
12:00 +38°C° 0 mm 2 mps 720 mmHg 50%
13:00 +40°C° 0 mm 2 mps 719 mmHg 44%
14:00 +41°C° 0 mm 2 mps 719 mmHg 38%
15:00 +42°C° 0 mm 3 mps 719 mmHg 38%
16:00 +42°C° 0 mm 3 mps 718 mmHg 38%
17:00 +42°C° 0 mm 4 mps 718 mmHg 37%
18:00 +40°C° 0 mm 3 mps 718 mmHg 42%
19:00 +39°C° 0 mm 3 mps 718 mmHg 48%
20:00 +38°C° 0 mm 3 mps 719 mmHg 53%
21:00 +37°C° 0 mm 3 mps 719 mmHg 55%
22:00 +37°C° 0 mm 3 mps 719 mmHg 56%
23:00 +36°C° 0 mm 3 mps 720 mmHg 58%

15 August, Saturday

Time Temperature Precipitation Wind Pressure Humidity
00:00 +36°C° 0.1 mm 2 mps 720 mmHg 60%
01:00 +35°C° 0.1 mm 2 mps 720 mmHg 63%
02:00 +35°C° 0.1 mm 2 mps 719 mmHg 65%
03:00 +34°C° 0.4 mm 2 mps 719 mmHg 68%
04:00 +32°C° 0.4 mm 2 mps 719 mmHg 72%
05:00 +32°C° 0.4 mm 2 mps 719 mmHg 75%
06:00 +32°C° 0.2 mm 2 mps 719 mmHg 73%
07:00 +32°C° 0.2 mm 2 mps 720 mmHg 72%
08:00 +34°C° 0.2 mm 2 mps 720 mmHg 70%
09:00 +35°C° 0.1 mm 2 mps 720 mmHg 65%
10:00 +36°C° 0.1 mm 2 mps 720 mmHg 59%
11:00 +38°C° 0.1 mm 2 mps 719 mmHg 54%
12:00 +39°C° 0 mm 2 mps 719 mmHg 50%
13:00 +39°C° 0 mm 2 mps 719 mmHg 46%
14:00 +40°C° 0 mm 2 mps 719 mmHg 42%
15:00 +42°C° 0 mm 3 mps 719 mmHg 41%
16:00 +42°C° 0 mm 3 mps 719 mmHg 40%
17:00 +42°C° 0 mm 3 mps 718 mmHg 39%
18:00 +40°C° 0 mm 3 mps 719 mmHg 44%
19:00 +39°C° 0 mm 3 mps 719 mmHg 49%
20:00 +37°C° 0 mm 3 mps 719 mmHg 54%
21:00 +37°C° 0 mm 3 mps 719 mmHg 55%
22:00 +37°C° 0 mm 3 mps 720 mmHg 57%
23:00 +36°C° 0 mm 2 mps 720 mmHg 58%
Show more